Theta_e
321 323 324 323 323 325 326 328 332 327 322 313 312 311 311 310 307 305 304 304 304 305 306 307 307 307 306
317 315 316 317 320 325 328 329 331 326 320 314 311 310 308 306 305 305 304 304 305 306 307 307 307 307 307
318 317 316 314 317 322 325 329 331 328 322 314 311 309 306 305 305 305 305 305 306 306 306 307 307 306 306
319 319 318 315 319 325 325 328 330 329 324 316 310 308 305 305 305 304 305 305 306 306 306 307 306 306 306
320 321 319 317 316 324 324 324 325 324 323 318 311 308 305 305 305 305 305 306 306 306 307 307 307 307 306
321 322 323 321 319 319 323 325 322 321 319 317 312 309 305 305 305 305 305 305 305 306 306 306 306 306 306
319 320 322 322 319 319 320 322 322 322 317 316 314 310 305 305 305 305 305 305 305 305 306 306 306 306 306
317 317 318 319 321 320 319 319 321 320 319 316 316 311 308 305 304 306 305 305 305 305 306 306 306 306 306
317 317 318 319 320 322 321 322 322 321 321 318 315 312 309 305 304 305 304 304 304 305 305 305 306 306 306
318 318 319 320 323 324 325 324 324 322 321 318 316 314 310 307 304 304 304 304 304 304 304 304 304 305 305
315 318 320 322 323 325 326 325 325 324 322 320 317 316 313 309 306 303 303 303 303 303 303 303 303 303 303
312 314 319 322 322 323 324 324 325 324 322 321 319 317 315 310 307 303 303 302 302 302 302 302 302 303 302
311 312 315 319 321 321 323 322 323 322 321 320 319 317 315 313 308 305 302 302 301 300 300 300 301 301 302
309 312 314 315 316 318 318 319 320 319 318 318 318 316 314 313 309 305 302 301 300 300 301 300 299 299 300
306 308 309 311 314 315 316 316 316 316 315 315 315 315 314 312 310 307 303 301 300 300 300 300 299 300 300
306 306 308 309 308 307 307 307 307 310 312 312 312 312 312 311 311 310 306 302 300 299 299 300 300 302 302
Wind_Speed
24 24 24 24 22 22 22 21 19 16 16 12 12 11 10 10 9 7 6 6 4 3 3 2 3 4 3
24 25 25 25 25 24 25 23 21 19 18 15 14 13 12 11 9 8 7 6 5 4 4 3 4 5 5
25 26 26 26 26 26 27 26 24 23 21 17 17 16 14 13 12 11 9 8 6 5 5 5 5 6 6
25 27 27 28 28 28 29 29 27 27 24 21 20 18 17 15 14 14 12 11 10 9 7 7 6 7 7
26 26 27 29 31 31 31 31 30 30 27 25 24 22 21 19 18 17 14 14 12 10 9 8 8 8 8
28 29 29 29 31 33 34 34 32 32 30 29 26 24 23 22 21 19 18 17 14 12 10 10 9 8 8
30 30 32 33 32 30 33 34 34 35 32 30 28 27 26 25 24 23 21 18 17 15 14 12 11 9 9
28 31 32 33 33 32 30 34 37 37 36 32 30 30 29 27 27 25 22 21 19 18 16 14 12 11 10
27 28 31 33 32 33 33 32 35 37 36 34 32 33 31 30 28 26 26 25 23 21 20 17 16 14 13
27 27 30 30 32 32 33 34 36 37 36 35 34 34 34 33 31 29 29 28 26 24 22 20 19 17 14
25 27 27 28 29 30 31 32 35 37 35 36 36 36 36 36 34 33 32 30 28 27 25 24 22 19 16
18 21 23 24 25 26 29 30 30 35 34 35 36 37 37 38 37 36 34 32 31 29 28 26 24 22 19
13 14 18 23 20 21 25 23 25 28 34 33 35 38 39 41 39 37 36 35 34 32 29 26 25 24 22
6 8 10 10 11 15 16 22 23 23 28 32 32 36 40 41 40 39 39 38 36 36 35 28 19 25 25
1 8 10 13 14 13 16 19 21 24 24 26 30 33 38 40 40 41 41 42 43 41 39 27 13 13 18
7 3 3 4 4 5 6 12 15 20 24 28 30 32 34 39 41 42 43 44 44 44 41 40 34 21 15
Wind_Direction
228 227 226 228 228 227 229 235 238 241 253 263 246 242 240 240 239 232 215 201 198 195 198 206 225 245 254
230 230 230 228 227 228 229 231 236 241 250 260 246 239 236 238 240 234 220 209 201 203 214 221 232 247 247
233 233 232 228 229 230 231 232 236 241 247 252 243 235 232 230 228 224 219 217 221 228 235 241 247 253 254
235 236 233 230 227 226 228 231 235 241 247 251 241 237 233 232 229 222 215 214 218 223 230 244 254 261 265
239 236 235 231 230 227 230 234 236 241 243 247 242 235 232 228 227 225 218 220 222 225 226 233 240 250 254
238 237 240 239 236 230 231 235 237 242 241 242 241 238 235 232 229 225 220 223 223 226 229 232 237 247 259
241 239 236 242 246 242 233 236 239 243 246 243 242 239 237 234 232 230 223 223 225 227 229 232 238 245 255
247 244 244 243 246 251 244 238 241 244 248 248 242 239 237 236 234 233 228 227 227 228 231 236 243 249 257
253 249 245 248 246 245 249 243 243 246 247 248 243 239 239 239 235 233 229 228 229 230 232 235 240 244 248
257 252 250 245 246 245 246 246 246 248 248 248 243 239 240 241 239 235 232 231 232 233 235 236 239 243 248
258 255 253 253 245 245 242 246 249 251 250 249 247 242 239 241 240 238 234 234 235 234 234 235 239 241 245
258 253 247 247 250 244 247 243 247 254 253 249 248 245 241 241 239 237 235 233 234 234 235 237 241 242 243
252 252 241 235 243 245 240 241 240 246 257 253 250 246 244 243 242 240 236 231 229 228 230 231 235 240 241
228 225 229 227 236 247 258 248 241 247 253 258 254 248 246 246 242 239 237 231 229 230 226 229 233 239 239
181 234 235 226 234 231 239 244 249 243 247 255 257 253 251 250 248 245 241 236 233 231 231 223 210 225 233
75 128 200 195 209 195 267 275 272 261 255 256 255 260 255 255 251 247 245 242 239 237 232 229 230 231 207